Weather History for CYFS - April, 2013

Change the Weather History Date:

Thursday, April 18, 2013

  Actual Average Record
Temperature  
Mean Temperature 26 °F -  
Max Temperature 33 °F 43 °F 68 °F (1998)
Min Temperature 20 °F 21 °F 5 °F (2008)
Degree Days  
Heating Degree Days 38    
Moisture  
Dew Point 14 °F    
Average Humidity 59    
Maximum Humidity 80    
Minimum Humidity 35    
Precipitation  
Precipitation 0.01 in - - ()
Sea Level Pressure  
Sea Level Pressure 30.37 in    
Wind  
Wind Speed 5 mph ()    
Max Wind Speed 12 mph    
Max Gust Speed 17 mph    
Visibility 13.3 miles    
Events Snow    
Averages and records for this station are not official NWS values.
T = Trace of Precipitation, MM = Missing Value Source: Averaged Metar Reports

Daily Weather History Graph

Daily Weather History Graph

Search for Another Location

Airport or City:

Trip Planner

Search our weather history database for the weather conditions in past years. The results will help you decide how hot, cold, wet, or windy it might be!

Date:

Astronomy

Apr. 18, 2013 Rise Set
Actual Time 6:31 AM MDT 9:38 PM MDT
Civil Twilight 5:40 AM MDT 10:30 PM MDT
Nautical Twilight 4:28 AM MDT 11:43 PM MDT
Astronomical Twilight 2:36 AM MDT 1:31 AM MDT
Moon 12:30 PM MDT (4/18) 4:18 AM MDT (4/18)
Length of Visible Light 16h 49m
Length of Day
15h 06m
First Quarter, 52% of the Moon is Illuminated
Apr 18
First Quarter
Apr 25
Full
May 2
Last Quarter
May 9
New
May 17
First Quarter

Hourly Weather History & Observations

Time (MDT) Temp. Windchill Dew Point Humidity Pressure Visibility Wind Dir Wind Speed Gust Speed Precip Events Conditions
12:00 AM 26 °F - 20 °F 71% 30.38 in 6 mi ESE 6.9 mph - - Snow Light Snow
12:00 AM 26.6 °F 19.1 °F 21.2 °F 80% 30.38 in 6.0 mi ESE 6.9 mph - N/A Snow Light Snow
1:00 AM 24.8 °F 19.1 °F 19.4 °F 80% 30.40 in 4.0 mi ESE 4.6 mph - N/A Snow Light Snow
2:00 AM 24.8 °F 20.5 °F 19.4 °F 80% 30.41 in 10.0 mi East 3.5 mph - N/A Snow Light Snow
3:00 AM 23.0 °F 18.4 °F 17.6 °F 80% 30.43 in 6.0 mi East 3.5 mph - N/A Snow Light Snow
4:00 AM 23.0 °F 18.4 °F 15.8 °F 74% 30.43 in 12.0 mi ESE 3.5 mph - N/A Snow Light Snow
5:00 AM 21.2 °F 16.4 °F 14.0 °F 74% 30.45 in 12.0 mi ESE 3.5 mph - N/A Snow Light Snow
6:00 AM 21 °F - 15 °F 68% 30.45 in 15 mi SE 2.3 mph - - Snow Light Snow
6:00 AM 21.2 °F - 15.8 °F 80% 30.45 in 15.0 mi SE 2.3 mph - N/A Snow Light Snow
6:49 AM - - - N/A% - 15.0 mi East 3.5 mph - N/A   Overcast
7:00 AM 21.2 °F 16.4 °F 8.6 °F 58% 30.45 in 15.0 mi East 3.5 mph - N/A   Overcast
8:00 AM 21.2 °F - 5.0 °F 50% 30.46 in 15.0 mi East 2.3 mph - N/A   Overcast
9:00 AM 23.0 °F 15.8 °F 6.8 °F 50% 30.46 in 15.0 mi SSE 5.8 mph - N/A   Overcast
10:00 AM 21.2 °F 13.6 °F 10.4 °F 63% 30.45 in 15.0 mi ESE 5.8 mph - N/A   Overcast
11:00 AM 23.0 °F 17.0 °F 12.2 °F 63% 30.45 in 15.0 mi SSE 4.6 mph - N/A   Scattered Clouds
12:00 PM 23 °F - 11 °F 45% 30.43 in 15 mi SE 5.8 mph - -   Partly Cloudy
12:00 PM 23.0 °F 15.8 °F 10.4 °F 59% 30.43 in 15.0 mi SE 5.8 mph - N/A   Mostly Cloudy
1:00 PM 26.6 °F 18.2 °F 15.8 °F 64% 30.41 in 15.0 mi ESE 8.1 mph - N/A   Scattered Clouds
2:00 PM 30.2 °F 22.6 °F 19.4 °F 64% 30.38 in 15.0 mi ESE 8.1 mph - N/A   Mostly Cloudy
3:00 PM 32.0 °F 25.6 °F 15.8 °F 51% 30.35 in 15.0 mi East 6.9 mph - N/A   Mostly Cloudy
4:00 PM 32.0 °F 23.0 °F 14.0 °F 48% 30.33 in 15.0 mi SE 11.5 mph - N/A   Scattered Clouds
5:00 PM 33.8 °F 25.3 °F 17.6 °F 52% 30.31 in 15.0 mi ESE 11.5 mph - N/A   Mostly Cloudy
6:00 PM 33 °F - 16 °F 35% 30.29 in 15 mi SE 11.5 mph - -   Overcast
6:00 PM 33.8 °F 25.3 °F 15.8 °F 48% 30.29 in 15.0 mi SE 11.5 mph 17.3 mph N/A   Overcast
7:00 PM 33.8 °F 25.3 °F 10.4 °F 38% 30.27 in 15.0 mi SE 11.5 mph - N/A   Overcast
8:00 PM 32.0 °F 24.8 °F 12.2 °F 44% 30.25 in 15.0 mi ESE 8.1 mph - N/A   Mostly Cloudy
9:00 PM 30.2 °F 25.4 °F 15.8 °F 55% 30.23 in 15.0 mi ESE 4.6 mph - N/A   Mostly Cloudy
10:00 PM 30.2 °F 21.9 °F 6.8 °F 37% 30.22 in 15.0 mi ESE 9.2 mph - N/A   Mostly Cloudy
11:00 PM 28.4 °F 21.2 °F 12.2 °F 51% 30.23 in 15.0 mi ESE 6.9 mph - N/A   Mostly Cloudy